Regional Weather Roundup
Issued by NWS

Home | Current Version | Previous Version | Text Only | Print | Product List | Glossary Off
Versions: 1 2 3 4 5 6 7 8 9 10 11 12 13 14 15 16 17 18 19 20 21 22 23 24 25 26 27 28 29 30 31 32 33 34 35 36 37 38 39 40 41 42 43 44 45 46 47 48 49 50

000
ASUS43 KIND 260709
RWRIN

WEATHER ROUNDUP FOR INDIANA
NATIONAL WEATHER SERVICE INDIANAPOLIS IN
200 AM EST WED NOV 26 2014

NOTE: "FAIR" INDICATES FEW OR NO CLOUDS BELOW 12,000 FEET WITH NO
SIGNIFICANT WEATHER AND/OR OBSTRUCTIONS TO VISIBILITY.

* - STATION DOES NOT REPORT WEATHER SUCH AS PRECIPITATION OR FOG.

+ - STATION NOT QUALITY CONTROLLED BY THE NATIONAL WEATHER SERVICE.
    USE DATA WITH CAUTION...ESPECIALLY DEWPOINT AND RELATIVE
    HUMIDITY OBSERVATIONS.

INZ001>003-010>013-019-020-260800-
NORTHWEST INDIANA

CITY           SKY/WX    TMP DP  RH WIND       PRES   REMARKS
GARY /AIRPORT/ CLOUDY    25  20  80 SE5       30.19S WCI  20
KNOX *+        CLOUDY    24  19  83 S3        30.17F
LA PORTE +     CLOUDY    25  21  84 CALM      30.18F
MICHIGAN CITY+ CLOUDY    25  18  74 S3        30.19F
MONTICELLO +   CLOUDY    25  20  82 CALM      30.17F
RENSSELAER +   CLOUDY    27  23  86 CALM      30.17F
VALPARAISO     CLOUDY    22  18  85 SE5       30.17F WCI  16

$$

LMZ046-743>745-260800-
SOUTHERN LAKE MICHIGAN

STATION/POSITION TIME  TEMP WIND        PRES
                       AIR  DIR/SP/G
                 (UTC) (F)  (DEG/KT/KT) (MB)
MICHIGAN CITY    0700   23  180/  7/  9   N/A

$$

INZ004-005-014>016-021>024-260800-
NORTH CENTRAL INDIANA

CITY           SKY/WX    TMP DP  RH WIND       PRES   REMARKS
GOSHEN         CLOUDY    25  19  78 S5        30.17F WCI  19
LOGANSPORT +   CLOUDY    25  19  80 W3        30.17F
PERU/GRISSOM   CLOUDY    25  23  95 NE3       30.16F
ROCHESTER +    CLOUDY    28  23  80 CALM      30.17F
SOUTH BEND     CLOUDY    25  19  78 CALM      30.18F
WARSAW +       CLOUDY    25  19  80 CALM      30.17F

$$

INZ006>009-017-018-025>027-260800-
NORTHEAST INDIANA

CITY           SKY/WX    TMP DP  RH WIND       PRES   REMARKS
ANGOLA *+      CLOUDY    25  12  58 CALM      30.16F
AUBURN +       CLOUDY    27  19  74 CALM      30.17F
FORT WAYNE     CLOUDY    25  20  81 CALM      30.18F
HUNTINGTON +   CLOUDY    25  20  83 CALM      30.17S

$$

INZ028-029-035-036-043>045-051>053-260800-
WEST CENTRAL INDIANA

CITY           SKY/WX    TMP DP  RH WIND       PRES   REMARKS
GREENCASTLE +  CLOUDY    27  21  80 E5        30.16F WCI  21
LAFAYETTE      CLOUDY    25  19  78 N5        30.17F WCI  19
TERRE HAUTE    PTCLDY    26  20  77 NE6       30.17F WCI  19

$$

INZ030>032-037>040-046>048-054>057-064-065-260800-
CENTRAL INDIANA

CITY           SKY/WX    TMP DP  RH WIND       PRES   REMARKS
CP ATTERBURY + CLOUDY    30  27  86 CALM      30.17S
FRANKFORT +    CLOUDY    25  22  88 CALM      30.18S
INDIANAPOLIS   CLOUDY    26  20  77 CALM      30.15F
-EAGLE CREEK   CLOUDY    26  20  77 E3        30.15F
KOKOMO *+      CLOUDY    25  18  74 E5        30.17S WCI  19
MARION +         N/A     25  21  84 NW3       30.17F
MT COMFORT *+  CLOUDY    27  18  69 CALM      30.16F
SHELBYVILLE    CLOUDY    30  23  75 N3        30.16S
ZIONSVILLE +   CLOUDY    26  20  80 NW3       30.16F

$$

INZ033-034-041-042-049-050-058-059-260800-
EAST CENTRAL INDIANA

CITY           SKY/WX    TMP DP  RH WIND       PRES   REMARKS
MUNCIE         CLOUDY    27  22  81 NW6       30.15F WCI  20

$$

INZ060-061-067>069-081>083-085>088-260800-
SOUTHWEST INDIANA

CITY           SKY/WX    TMP DP  RH WIND       PRES   REMARKS
EVANSVILLE     CLEAR     27  23  85 CALM      30.17F
HUNTINGBURG *+ CLEAR     25  21  86 CALM      30.17F
WASHINGTON +   CLOUDY    29  25  85 N5        30.16F WCI  23

$$

INZ062-063-066-070>080-084-089>092-260800-
SOUTH CENTRAL AND SOUTHEAST INDIANA

CITY           SKY/WX    TMP DP  RH WIND       PRES   REMARKS
BLOOMINGTON    CLOUDY    27  22  81 NE6       30.15F WCI  20
SEYMOUR +      CLOUDY    28  25  86 CALM      30.17F

$$



USA.gov is the U.S. government's official web portal to all federal, state and local government web resources and services.